Kuchera_Ratio
3.6 5.2 6.7 7.4 8.5 8.8 9.2 9.8 10.2 9.8 10.3 11.2 12.0 11.7 12.0 12.2 12.6 13.2 13.3 13.4 13.8 13.6 14.0 14.3 14.7 14.6 14.3 13.9 15.3 15.3 15.3 15.3 15.2 15.3 15.7 15.9 16.3 17.5 17.6 18.1 19.1 20.6 20.8 20.2 20.5 20.4 20.0 18.8 18.8 20.5 18.8 19.1 19.0 18.8 18.5 17.2 18.3 18.3 18.4 18.6 18.7 18.7 15.9
2.9 3.9 5.9 7.7 8.2 8.7 8.8 9.3 9.9 10.2 10.6 11.9 12.3 12.4 12.0 12.4 12.7 13.1 13.4 13.3 13.9 13.9 14.3 14.6 15.4 15.1 14.7 14.2 15.6 15.7 16.1 15.8 16.2 16.7 17.0 16.8 17.3 17.8 18.4 17.3 19.0 20.1 20.9 21.5 20.7 21.4 20.5 21.1 19.2 20.8 18.7 20.7 20.2 19.2 19.2 19.5 19.4 19.1 19.2 19.2 19.2 19.3 19.3
3.1 3.5 5.2 7.3 8.2 8.8 9.4 9.6 10.1 10.1 11.4 12.1 12.5 12.6 12.4 12.3 12.6 13.0 13.5 13.8 13.8 13.9 13.9 15.2 15.6 15.8 15.5 15.4 16.2 16.3 16.4 16.2 16.9 16.8 17.6 17.8 17.2 18.5 17.7 17.9 17.7 19.7 21.5 21.9 22.0 20.7 21.8 21.1 20.9 21.1 20.6 19.4 19.6 19.6 19.7 20.2 20.3 20.0 19.8 19.5 19.6 19.8 19.9
3.4 3.9 4.9 6.9 8.4 9.4 9.7 10.0 10.4 11.1 11.4 12.2 12.4 12.7 12.8 12.5 12.6 12.7 12.9 13.6 14.2 13.8 14.7 15.5 16.0 16.1 15.7 16.0 16.8 17.0 16.8 16.7 17.2 17.5 17.7 18.1 17.8 18.0 18.0 18.0 18.0 18.3 20.3 21.7 22.6 22.3 22.3 20.5 21.7 20.9 20.0 20.0 20.1 20.2 20.4 20.5 20.6 20.7 20.7 20.5 20.2 20.2 20.3
4.5 4.7 5.1 6.6 7.9 9.2 9.9 10.4 10.7 11.6 12.0 12.1 12.1 12.5 12.6 13.2 13.4 13.5 13.5 13.6 14.1 14.1 14.7 15.3 15.9 15.8 15.9 16.4 17.4 17.6 17.7 17.6 18.1 17.9 18.1 18.6 18.4 18.3 18.5 18.4 18.5 19.0 18.7 22.2 22.9 23.2 22.0 21.3 21.1 20.7 21.1 20.6 21.7 21.4 20.9 21.1 21.2 21.3 21.4 21.4 21.2 20.9 20.0
5.2 5.7 5.7 5.7 6.8 7.9 9.0 9.9 10.7 11.3 12.0 12.1 12.1 12.3 12.8 13.3 13.5 13.6 13.8 14.0 14.0 14.3 14.6 15.3 15.7 15.7 16.1 16.9 17.6 18.0 18.0 18.1 18.6 18.5 18.9 19.1 19.1 19.1 18.9 19.3 19.2 18.8 20.1 20.9 22.7 23.4 23.6 23.6 23.5 23.1 22.3 21.5 21.5 21.9 22.8 23.0 22.8 21.8 21.9 22.2 22.0 21.8 21.7
6.6 6.2 6.5 6.4 6.7 8.2 9.0 9.7 10.5 11.5 11.9 12.3 12.4 13.1 13.5 13.7 13.8 13.6 14.0 14.2 14.3 14.6 14.7 15.1 15.5 16.1 16.3 17.1 17.3 17.8 18.3 18.6 18.8 19.0 19.4 19.2 19.6 19.3 19.9 20.5 20.8 20.6 21.2 21.9 23.0 23.8 24.2 24.2 23.9 23.1 24.2 22.6 20.9 21.4 21.8 23.7 24.9 25.4 25.1 22.5 23.8 23.9 22.1
8.0 7.2 7.3 7.2 7.4 7.6 8.7 10.0 11.9 12.0 12.5 12.7 13.0 13.5 13.9 13.9 14.2 14.3 14.5 14.5 14.7 14.9 15.4 15.5 15.8 16.2 16.5 16.9 17.2 17.6 17.9 18.2 19.0 19.0 19.7 19.2 19.6 19.9 20.5 21.3 21.5 22.0 22.2 22.7 23.8 24.3 24.6 24.7 24.8 24.8 24.5 22.9 23.2 25.2 25.1 23.5 24.2 25.6 25.2 25.9 25.6 24.4 24.2
9.5 10.6 10.5 10.0 10.0 10.3 10.5 11.8 12.2 12.3 12.7 13.3 13.6 13.8 14.2 14.3 14.5 14.7 15.1 15.4 15.6 15.6 15.9 16.1 16.3 16.5 16.8 16.8 16.9 16.9 17.1 17.4 17.7 18.9 19.8 19.8 20.0 20.6 20.9 21.5 21.8 22.5 23.3 24.3 24.7 24.9 25.1 25.5 25.8 25.8 25.8 25.7 25.6 25.6 25.1 24.1 24.7 25.3 24.9 25.6 25.8 25.5 23.3
12.2 12.4 12.3 12.2 12.1 12.2 12.4 12.6 12.7 12.7 12.1 12.0 13.5 14.1 14.4 14.7 14.9 15.1 15.5 15.9 16.3 16.6 16.6 16.7 16.7 16.9 16.7 16.8 17.0 17.0 17.1 17.3 17.4 17.6 18.2 19.2 19.8 20.6 21.1 21.6 22.2 23.2 24.1 24.4 25.4 25.5 25.6 26.1 26.4 26.1 25.8 25.7 24.8 24.3 24.3 25.2 25.3 26.3 25.5 26.8 26.9 26.1 25.6
13.2 13.3 13.3 13.3 13.4 13.3 13.4 13.5 13.6 12.9 10.4 9.6 10.3 13.7 14.9 15.4 15.6 15.6 16.0 16.3 16.8 17.2 17.3 17.4 17.3 17.6 17.1 17.1 17.2 17.4 17.2 17.3 17.6 17.5 17.7 17.5 18.0 18.8 20.3 21.7 22.6 23.3 24.2 25.1 25.6 25.5 25.8 26.2 26.1 25.4 24.9 25.0 24.7 24.5 25.0 25.1 25.2 25.9 26.6 27.6 28.1 28.4 27.9
14.5 14.6 14.5 14.5 14.6 14.6 14.6 14.6 14.2 12.6 11.3 10.2 9.9 12.2 14.9 15.5 15.9 16.2 16.5 16.7 17.0 17.1 17.3 17.8 18.1 18.0 18.0 18.1 18.1 18.2 18.0 17.6 17.6 17.8 17.9 18.0 18.2 18.6 18.6 18.2 20.4 22.6 23.9 24.8 25.4 25.8 26.0 26.2 26.1 25.7 25.2 25.7 25.7 25.8 25.3 25.4 25.9 26.3 27.1 27.8 28.2 27.7 28.3
16.1 16.1 16.0 16.0 15.9 15.9 15.9 15.9 14.2 12.8 12.0 11.2 10.5 10.3 13.4 15.8 16.0 16.5 16.9 17.0 17.3 17.5 17.6 17.9 18.4 18.8 18.7 18.5 17.6 17.9 18.6 18.7 18.6 18.0 18.0 18.2 18.2 18.6 18.6 17.1 16.1 17.3 21.4 23.0 24.2 25.1 25.5 25.4 25.5 25.9 25.6 25.1 25.1 24.9 26.7 26.8 27.5 27.1 27.0 26.8 27.5 27.1 26.6
16.8 16.8 17.3 17.3 17.3 17.2 17.3 17.3 15.6 13.5 12.5 12.0 11.1 10.5 11.9 15.6 16.3 16.7 17.0 17.3 17.5 17.6 17.9 18.2 18.6 19.2 19.6 19.5 18.8 18.4 18.9 19.2 19.4 19.3 19.3 19.5 19.6 19.9 19.7 19.0 17.8 17.6 18.9 21.0 23.1 24.1 24.4 24.1 24.2 25.0 24.7 24.8 23.7 26.1 26.7 27.2 27.3 27.2 27.6 27.6 27.5 25.8 25.3
18.2 18.3 18.1 18.2 18.1 18.3 18.1 18.3 15.2 14.1 13.2 12.5 11.9 11.2 11.5 13.9 16.1 16.7 17.2 17.6 17.8 17.9 18.1 18.3 18.6 19.0 19.6 19.9 20.1 19.2 19.2 19.9 20.1 20.2 20.4 20.5 20.7 20.8 21.1 21.3 21.1 20.5 19.8 20.6 22.1 23.0 23.5 23.2 23.4 23.9 24.1 24.1 24.3 24.8 24.9 25.1 26.0 25.9 26.4 26.1 26.3 27.1 28.0
19.1 19.2 19.2 19.2 19.3 19.3 19.3 19.2 15.4 14.4 13.6 13.1 12.6 12.1 13.3 13.8 15.7 17.2 17.6 18.0 18.3 18.4 18.3 18.6 18.9 19.5 19.8 20.1 20.7 19.3 18.3 18.6 20.1 20.7 21.3 21.6 21.6 22.0 22.1 22.5 20.6 18.5 18.0 19.3 20.0 20.8 22.4 21.5 21.6 20.7 22.1 23.0 23.7 24.2 24.3 24.2 24.2 24.5 27.5 28.1 28.7 28.9 27.9
20.0 20.0 20.1 20.1 20.1 20.2 20.3 20.2 17.7 15.3 14.3 13.6 13.1 13.2 14.5 15.6 18.1 18.0 18.3 18.6 19.0 19.1 19.2 19.3 19.6 19.7 20.0 20.3 21.0 19.7 17.1 16.5 19.0 21.4 22.0 22.4 23.0 23.0 23.6 24.0 23.1 18.3 16.1 15.7 15.5 15.6 16.2 16.8 17.1 16.7 16.2 16.9 17.2 21.5 23.5 25.6 27.1 28.1 28.0 29.0 29.4 28.9 28.8
21.0 21.0 21.0 21.1 21.1 21.2 21.3 21.1 19.6 16.5 15.3 14.4 13.6 13.8 15.1 18.2 19.0 19.3 19.1 19.5 20.0 20.4 20.7 20.2 18.4 19.1 20.4 20.7 21.1 19.0 16.8 15.9 18.0 21.5 22.3 23.1 23.8 24.8 25.2 25.1 25.0 24.4 21.1 16.3 15.3 15.5 15.3 15.2 15.7 15.9 16.2 16.0 15.9 16.5 18.8 25.2 27.2 26.4 26.2 28.1 27.9 29.0 28.2
21.9 21.9 21.9 22.0 21.9 20.0 21.3 22.0 21.3 18.0 16.6 15.4 14.6 14.8 16.6 19.5 19.9 20.6 20.3 20.3 20.8 20.9 21.1 21.1 19.6 18.9 19.6 20.4 20.1 17.5 16.4 15.7 17.6 20.3 21.9 22.9 23.8 24.8 25.5 24.6 24.4 24.6 25.0 24.6 23.9 22.6 21.2 20.5 18.7 18.9 19.3 19.1 17.9 17.5 17.9 21.2 24.2 24.0 25.7 27.4 27.2 27.4 27.6
22.7 22.7 22.6 22.6 22.5 22.5 22.5 22.6 22.4 21.4 17.6 16.7 15.9 15.2 16.5 18.9 20.9 21.3 21.3 20.8 21.0 21.5 21.5 21.6 21.8 20.6 19.2 17.3 17.5 16.8 16.1 15.7 15.5 18.8 20.3 21.6 23.3 24.2 24.8 23.1 23.6 23.5 23.8 24.4 24.6 24.5 23.8 23.6 22.9 21.8 22.0 22.2 22.3 22.2 21.7 22.0 22.5 23.0 23.9 25.5 26.2 26.6 27.1
23.4 23.3 23.1 23.0 23.0 22.9 22.9 23.0 23.0 22.7 18.6 17.5 16.7 16.0 16.5 17.9 19.5 20.4 21.0 21.5 21.6 21.5 21.7 21.6 21.8 21.6 20.3 18.4 16.6 16.3 15.9 15.6 15.5 16.0 18.8 20.1 21.6 21.8 21.1 20.5 23.0 22.9 22.0 23.6 24.1 24.5 24.5 24.5 24.3 24.3 24.3 24.7 25.8 25.7 25.3 25.3 24.7 23.6 23.1 24.1 25.5 26.2 26.6
23.9 23.9 23.8 23.6 23.5 23.5 23.5 23.6 22.2 23.7 20.8 18.7 17.8 17.1 16.5 18.5 19.4 19.3 21.1 21.8 22.2 22.1 22.1 21.9 21.5 22.1 20.6 19.7 17.4 16.2 16.1 15.9 15.6 15.3 17.6 18.7 17.2 16.8 16.9 19.4 20.9 22.1 22.8 23.3 23.9 24.6 25.2 25.6 25.7 26.0 25.9 25.7 25.6 25.8 25.4 25.5 25.9 25.6 24.7 23.9 24.0 24.8 26.1
24.7 24.7 24.7 24.5 24.4 24.4 24.4 24.4 24.5 22.3 22.8 20.7 18.9 18.2 17.7 17.3 18.2 17.1 18.2 20.0 21.4 21.4 21.2 21.1 21.7 21.2 20.2 19.6 17.2 16.9 16.2 15.7 15.4 16.2 17.4 15.7 15.6 16.3 17.4 18.4 20.1 21.5 22.6 23.4 24.0 24.7 25.9 26.1 26.5 26.9 26.8 26.5 26.6 25.8 25.6 25.5 25.5 25.6 26.1 25.7 24.9 24.6 24.2
25.8 25.9 26.0 25.9 25.7 25.6 25.5 25.5 25.7 24.4 22.6 22.6 20.9 19.5 18.6 18.1 17.9 17.6 19.3 19.8 20.6 20.4 20.5 20.6 20.9 21.4 18.6 17.5 17.1 17.1 16.6 16.4 17.2 18.1 16.4 15.9 16.3 17.5 17.8 18.9 20.0 20.9 22.1 23.1 23.8 24.5 25.1 25.7 25.8 26.6 26.8 26.8 26.2 26.1 26.1 26.2 26.1 25.9 26.0 26.5 26.7 26.3 25.9
26.8 26.9 27.2 27.2 27.1 26.9 26.4 26.3 26.4 26.3 25.2 23.3 22.8 20.9 19.7 19.3 18.5 19.3 19.8 21.2 21.5 21.2 21.4 20.5 18.8 17.9 17.6 17.2 16.7 16.7 16.7 17.9 18.5 17.7 17.7 18.1 18.3 18.3 19.7 20.4 21.4 22.0 21.9 23.0 24.0 24.2 24.1 24.3 24.7 25.3 25.5 25.3 25.8 25.2 25.8 26.2 26.7 27.2 27.0 27.4 27.9 28.0 28.0
27.5 27.6 27.8 27.8 27.5 27.1 26.6 26.3 26.3 26.2 26.2 26.2 25.2 24.3 22.6 20.9 21.4 22.1 22.0 22.1 22.7 21.9 21.5 21.1 20.2 20.8 21.1 21.4 21.1 20.6 20.5 20.7 20.7 19.6 19.6 19.6 19.6 20.5 20.8 23.0 24.0 24.3 24.3 24.3 24.1 24.3 24.6 24.2 24.2 25.2 25.7 26.4 26.9 27.5 27.8 27.9 28.0 28.0 27.8 27.9 28.5 29.2 29.5
27.8 27.8 27.9 27.8 27.4 27.0 26.7 26.6 26.4 26.3 26.2 26.2 26.2 26.2 26.1 26.1 26.1 24.5 23.9 25.0 25.7 24.7 25.2 24.5 23.9 23.9 22.8 22.2 21.6 21.2 20.7 20.6 19.9 20.5 20.7 21.3 21.5 21.8 22.3 23.7 24.8 25.0 25.2 25.5 25.4 25.6 25.4 24.9 24.5 25.1 26.8 27.1 27.5 27.8 27.8 27.9 28.1 28.4 28.3 28.0 28.6 30.0 30.4
28.0 27.8 27.5 27.4 27.4 27.4 27.6 27.5 27.1 26.9 26.8 26.6 26.4 26.2 26.0 26.0 25.9 25.9 26.0 26.1 25.9 25.9 26.0 26.3 25.8 25.9 27.2 27.4 27.4 26.5 25.1 24.1 22.8 22.1 22.4 22.3 22.7 23.9 24.8 24.5 23.3 23.6 25.3 25.1 25.3 25.9 26.2 26.8 26.1 26.4 26.5 27.3 27.5 27.8 27.9 27.9 28.3 28.7 28.5 28.2 29.2 30.9 31.3
27.5 27.0 26.7 26.4 26.6 27.0 27.1 27.2 27.6 27.4 24.6 25.5 24.3 25.7 25.9 25.9 26.0 26.1 26.3 26.3 25.5 26.6 27.2 27.7 28.2 28.3 28.3 28.6 28.7 28.6 28.4 28.0 26.7 25.3 24.3 24.6 24.9 25.8 25.7 25.8 26.2 26.0 25.9 26.2 27.2 27.4 27.4 27.4 27.6 27.1 26.7 27.3 27.9 27.9 27.8 27.9 28.4 28.9 28.6 29.1 30.2 31.0 30.9
23.7 22.9 23.1 24.3 24.7 24.8 26.2 26.3 25.2 22.0 20.1 20.0 20.0 19.3 20.0 21.1 21.1 21.9 23.8 24.2 24.3 24.4 26.8 28.1 29.1 29.2 29.4 29.5 29.7 29.9 29.7 29.2 28.7 28.3 27.5 27.3 26.7 26.8 26.6 26.7 26.8 26.9 26.3 27.4 27.6 27.7 27.9 28.1 28.3 28.5 28.4 28.4 28.5 28.4 28.1 28.4 28.9 29.2 29.5 30.1 31.0 31.6 31.3
21.1 21.0 22.4 24.1 26.1 24.9 23.4 23.4 23.3 23.3 21.5 20.8 20.4 20.2 20.2 20.7 21.6 21.6 21.6 21.9 23.7 25.4 26.5 27.9 28.8 29.1 29.7 29.9 30.2 30.4 30.2 29.8 29.6 29.2 28.8 28.1 27.8 27.9 27.9 27.9 27.8 27.6 27.6 27.8 28.1 28.4 28.4 28.6 28.9 29.1 29.2 29.2 29.1 28.9 28.7 29.0 29.7 30.1 30.4 30.4 30.8 31.7 31.6
22.5 22.5 22.9 24.2 24.8 25.3 25.6 24.6 24.4 24.5 22.6 22.0 21.9 21.8 22.1 21.7 21.4 21.5 22.7 24.5 23.9 26.7 27.1 27.4 28.3 28.8 29.1 29.7 30.2 30.4 30.3 30.1 30.2 30.1 29.9 29.7 29.6 29.2 28.9 28.7 28.7 28.3 28.4 28.6 28.9 29.2 29.2 29.3 29.3 29.5 29.8 29.9 29.8 29.8 29.9 30.2 30.8 31.2 31.3 31.4 31.6 31.9 31.8
24.1 24.2 24.5 24.3 24.1 23.6 24.3 25.5 25.8 25.1 23.8 23.7 23.2 22.9 24.1 23.6 24.2 25.0 25.9 26.9 29.6 31.4 31.7 31.2 31.1 30.9 30.0 29.3 29.2 28.8 29.4 29.9 30.4 30.4 30.3 30.4 30.2 30.1 29.8 29.4 28.8 27.7 28.7 29.2 29.2 29.2 29.6 29.9 29.9 30.0 30.4 30.7 30.7 30.8 30.9 31.2 31.5 31.8 32.0 32.4 32.8 32.9 32.7
27.1 27.4 27.8 27.2 26.2 25.8 25.7 26.0 25.6 25.7 25.9 25.0 24.0 23.5 25.1 27.5 27.5 26.3 27.3 29.5 33.2 33.9 34.7 34.3 34.0 32.5 31.9 31.4 30.7 30.3 29.5 29.2 29.1 29.2 29.6 29.8 30.1 30.1 29.7 29.4 28.8 29.2 29.1 29.3 29.2 29.3 29.6 30.0 30.3 30.6 31.0 31.4 31.5 31.6 31.8 31.9 32.2 32.5 33.0 33.5 33.7 33.7 33.5
31.7 30.3 29.2 29.8 29.4 29.0 28.7 28.7 28.6 28.4 27.9 26.8 26.6 27.3 27.7 28.4 33.3 34.3 34.0 33.5 34.5 34.1 35.1 34.8 34.1 34.1 33.0 32.4 32.0 31.2 30.7 30.6 30.1 29.7 29.2 28.9 28.9 29.1 29.3 29.3 29.5 29.7 29.5 29.5 29.5 29.7 29.8 30.0 30.3 30.9 31.1 31.5 31.9 32.4 32.6 32.7 32.7 32.8 33.2 33.6 33.8 33.9 33.9
33.6 33.6 31.7 29.7 30.0 29.6 29.6 29.4 29.1 28.9 28.1 26.8 27.0 28.4 30.8 35.6 36.3 36.4 35.7 35.3 34.8 34.4 33.3 33.0 32.9 32.7 32.7 32.4 32.5 32.2 32.5 32.1 32.3 31.9 31.8 31.2 30.3 29.5 29.0 29.1 29.2 29.5 30.0 30.0 29.8 30.1 30.1 30.1 30.9 31.0 31.4 31.8 32.3 32.7 32.7 32.8 32.8 32.9 33.2 33.4 33.6 33.9 34.2